Regional Weather Roundup
Issued by NWS

Home | Current Version | Previous Version | Graphics & Text | Print | Product List | Glossary On
Versions: 1 2 3 4 5 6 7 8 9 10 11 12 13 14 15 16 17 18 19 20 21 22 23 24 25 26 27 28 29 30 31 32 33 34 35 36 37 38 39 40 41 42 43 44 45 46 47 48 49 50
475
ASUS43 KOAX 241010
RWRNE

WEATHER ROUNDUP FOR NEBRASKA
NATIONAL WEATHER SERVICE OMAHA NE
500 AM CDT WED MAY 24 2017

NOTES: SATELLITE DATA IS BEING USED TO AUGMENT CLOUD COVER ABOVE
       12000 FEET.
       "FAIR" INDICATES FEW OR NO CLOUDS BELOW 12,000 FEET WITH NO
       SIGNIFICANT WEATHER AND/OR OBSTRUCTIONS TO VISIBILITY.

  * THESE STATIONS DO NOT REPORT WEATHER SUCH AS RAIN...SNOW OR FOG.

NEZ001>004-019>022-054>056-241100-
NEBRASKA PANHANDLE

CITY           SKY/WX    TMP DP  RH WIND       PRES   REMARKS
SCOTTSBLUFF    CLEAR     39  35  86 E9        29.89F WCI  33
ALLIANCE       CLOUDY    31  30  96 SE6       29.90F WCI  25
CHADRON        CLEAR     42  35  76 CALM      29.87F
GORDON         FAIR      32  31  93 CALM      29.88F
KIMBALL        CLOUDY    37  34  90 SW6       29.92F WCI  32
SIDNEY         CLEAR     32  30  92 S6        29.92F WCI  26
$$

NEZ057>060-069>072-079>082-241100-
SOUTHWEST NEBRASKA

CITY           SKY/WX    TMP DP  RH WIND       PRES   REMARKS
NORTH PLATTE   CLOUDY    32  31  96 W5        29.91F WCI  27
IMPERIAL       CLEAR     36  33  89 W6        29.93F WCI  31
LEXINGTON      CLEAR     39  37  91 NW7       29.89F WCI  34
MCCOOK         CLEAR     38  36  92 NW10      29.91F WCI  31
OGALLALA       CLOUDY    34  33  94 W6        29.92F WCI  29
$$

NEZ005>010-023>029-035>040-094-241100-
NORTH CENTRAL NEBRASKA

CITY           SKY/WX    TMP DP  RH WIND       PRES   REMARKS
VALENTINE      CLEAR     34  29  82 W3        29.89F
AINSWORTH      CLEAR     37  36  96 W5        29.88F WCI  33
BROKEN BOW     CLEAR     41  38  89 NW9       29.88F
O`NEILL        CLEAR     43  40  90 NW7       29.87F
ORD            CLEAR     38  36  92 NW6       29.86F WCI  33
THEDFORD       PTCLDY    34  33  96 W3        29.90F
$$

NEZ041-046>049-061>064-073>077-083>087-241100-
SOUTH CENTRAL NEBRASKA

CITY           SKY/WX    TMP DP  RH WIND       PRES   REMARKS
GRAND ISLAND   PTCLDY    46  43  89 NW12      29.86S
AURORA         CLEAR     45  42  90 NW8       29.84F
HASTINGS       CLEAR     46  41  82 NW10      29.86S
HEBRON         CLEAR     47  44  88 NW7       29.83S
HOLDREGE       MOCLDY    45  40  84 NW7       29.88S
KEARNEY *      CLEAR     45  37  76 NW5       29.88S
YORK           CLEAR     46  45  93 NW10      29.83F
$$

NEZ011>018-030>034-042>045-241100-
NORTHEAST NEBRASKA

CITY           SKY/WX    TMP DP  RH WIND       PRES   REMARKS
NORFOLK        CLEAR     43  41  93 W5        29.82F
ALBION         CLEAR     42  39  89 NW6       29.86S
BLAIR          CLOUDY    48  46  90 NW10      29.78R
FREMONT        CLEAR     46  45  97 NW7       29.81S
TEKAMAH        CLEAR     47  44  90 NW10      29.79R
WAYNE          CLEAR     44  44  99 NW5       29.81F
$$

NEZ050>053-065>068-078-088>093-241100-
SOUTHEAST NEBRASKA

CITY           SKY/WX    TMP DP  RH WIND       PRES   REMARKS
LINCOLN        CLEAR     48  45  89 NW12      29.82S
OMAHA EPPLEY   CLOUDY    50  45  83 N12       29.77S
BEATRICE       CLEAR     46  45  95 NW8       29.80S
FALLS CITY     CLOUDY    50  47  89 NW13      29.74F
NEBRASKA CITY  CLOUDY    51  46  85 N12G17    29.75F
PLATTSMOUTH    CLOUDY    49  45  84 NW10      29.76F
$$

NEZ044-045-051>053-067-241100-
OMAHA AREA

CITY           SKY/WX    TMP DP  RH WIND       PRES   REMARKS
OMAHA EPPLEY   CLOUDY    50  45  83 N12       29.77S
BLAIR          CLOUDY    48  46  90 NW10      29.78R
FREMONT        CLEAR     46  45  97 NW7       29.81S
MILLARD        CLOUDY    52  47  85 NW9       29.78S
OFFUTT AFB     MOCLDY    50  46  85 NW10      29.76S
PLATTSMOUTH    CLOUDY    49  45  84 NW10      29.76F
WAHOO          FAIR      46  44  93 NW10      29.80S
$$




USA.gov is the U.S. government's official web portal to all federal, state and local government web resources and services.